EST,Max TemperatureF,Mean TemperatureF,Min TemperatureF,Max Dew PointF,MeanDew PointF,Min DewpointF,Max Humidity, Mean Humidity, Min Humidity, Max Sea Level PressureIn, Mean Sea Level PressureIn, Min Sea Level PressureIn, Max VisibilityMiles, Mean VisibilityMiles, Min VisibilityMiles, Max Wind SpeedMPH, Mean Wind SpeedMPH, Max Gust SpeedMPH,PrecipitationIn, CloudCover, Events, WindDirDegrees
2013-1-1,41,36,32,41,35,27,100,95,65,30.07,30.00,29.93,10,4,0,20,10,26,0.08,8,Fog-Rain-Snow,264
2013-1-2,32,31,30,32,31,30,100,100,100,30.12,30.06,29.98,10,2,0,8,4,,0.01,8,Fog-Snow,348
2013-1-3,35,32,28,32,28,21,100,89,70,30.26,30.17,30.10,10,9,2,8,3,,0.03,3,,310
2013-1-4,33,27,21,27,23,19,100,79,69,30.32,30.29,30.25,10,10,10,15,7,18,0.00,3,,273
2013-1-5,42,32,23,28,25,21,93,74,49,30.35,30.26,30.18,10,10,10,8,3,,0.00,3,Rain,201
2013-1-6,41,36,32,34,31,27,100,86,70,30.23,30.13,30.05,10,10,10,15,9,22,0.00,8,,238
2013-1-7,48,38,28,28,26,23,93,70,37,30.38,30.30,30.24,10,10,10,10,5,,0.00,3,,235
2013-1-8,50,41,32,36,29,23,75,63,43,30.38,30.30,30.26,10,10,10,17,6,22,0.00,0,,201
2013-1-9,51,46,41,52,43,32,100,88,61,30.50,30.40,30.30,10,7,0,13,5,,0.04,6,Fog-Rain,227
2013-1-10,64,53,42,52,47,41,100,82,63,30.50,30.40,30.23,10,9,0,16,4,26,0.00,4,Fog,139
2013-1-11,60,56,51,59,53,46,100,87,77,30.23,30.14,30.08,10,10,5,21,12,30,0.01,6,Rain,190
2013-1-12,69,64,60,63,61,59,100,95,73,30.19,30.12,30.05,10,9,3,18,12,24,0.00,5,Rain,218
2013-1-13,64,60,57,61,54,52,100,81,64,30.10,30.04,29.99,10,10,5,22,12,30,0.11,4,Rain,200
2013-1-14,57,44,32,57,40,32,100,100,100,30.29,30.18,30.07,10,3,0,12,7,18,0.51,8,Fog-Rain-Snow,4
2013-1-15,41,36,32,41,34,32,100,100,100,30.22,30.09,29.96,10,2,0,9,5,,0.63,8,Fog-Rain-Snow,17
2013-1-16,50,42,35,50,42,36,100,100,100,30.05,29.98,29.91,10,7,0,9,4,,0.37,8,Fog-Rain,223
2013-1-17,39,34,28,39,32,28,100,100,93,30.23,30.05,29.98,10,5,0,10,5,,0.00,8,Fog-Rain-Snow,9
2013-1-18,33,27,21,32,27,18,100,93,64,30.44,30.38,30.25,10,8,1,9,1,,0.25,4,,227
2013-1-19,42,33,24,32,27,21,93,73,57,30.35,30.23,30.09,10,10,10,21,9,29,0.28,0,,220
2013-1-20,46,39,32,32,27,18,87,65,46,30.12,30.09,30.07,10,10,10,20,12,28,0.41,0,,252
2013-1-21,37,29,21,21,16,7,69,54,38,30.07,30.02,29.96,10,10,10,25,6,34,0.00,1,,261
2013-1-22,23,18,12,5,1,-4,67,49,33,30.19,30.13,30.04,10,10,10,14,8,24,0.00,2,,286
2013-1-23,33,23,14,27,12,1,75,60,49,30.23,30.13,29.99,10,10,10,18,8,25,0.00,5,,238
2013-1-24,37,27,17,30,11,1,81,59,39,30.36,30.23,29.98,10,10,10,20,10,39,0.00,4,Snow,323
2013-1-25,32,24,17,32,22,5,100,83,46,30.28,30.08,29.97,10,5,0,22,7,29,0.00,6,Fog-Snow,204
2013-1-26,32,28,24,32,29,25,100,100,93,30.33,30.20,30.08,10,8,1,8,4,,0.00,7,,312
2013-1-27,44,32,21,34,28,21,100,81,42,30.37,30.32,30.28,10,8,3,12,2,17,0.03,4,Rain,183
2013-1-28,50,44,37,50,41,34,100,90,76,30.30,30.25,30.21,10,9,2,22,12,32,0.03,7,Rain,229
2013-1-29,64,57,50,55,51,48,100,83,63,30.22,30.11,29.92,10,10,5,21,14,33,0.02,4,Rain,211
2013-1-30,62,50,37,55,51,36,100,90,72,29.91,29.64,29.46,10,7,1,24,14,36,1.39,7,Rain,191
2013-1-31,37,32,28,36,24,19,100,77,64,29.91,29.81,29.53,10,8,1,26,16,38,0.00,8,Rain-Snow,253